"startDT [UTC]","vpos","CH4 [ppm]","stdev(CH4) [ppm]","CO2 [ppm]","stdev(CO2) [ppm]","H2O [ppm]","stdev(H2O)","p_LGR [torr]","T_LGR [C]","mt1_LGR [us]","mt2_LGR [us]","T_ECpre [C]","T_EC1 [C]","T_EC2 [C]","p_inlet [hPa]","p_in [hPa]","p_out [hPa]","T_inlet [C]","RH_inlet [%]","dwpt_inlet [C]","T_vent [C]","RH_vent [%]","dwpt_vent [C]","flow_vent [l min-1]","flow_inlet [l min-1]","dwpt_sample [C]","T_room [C]"
2012-10-31 00:00:00,0.0,1.8948,0.0009,397.33,0.23,176.6,34.6,138.04,31.67,24.66,36.43,0.04,-272.75,-272.74,-42,564,-943,24.9,3.5,-21.5,25.2,3.5,-21.3,5.73,2.37,-24.2,30.4
2012-10-31 00:01:00,0.0,1.8947,0.0011,397.31,0.24,176.6,31.1,138.04,31.67,24.65,36.42,0.04,-272.74,-272.74,-42,564,-943,24.9,3.4,-21.6,25.2,3.5,-21.3,5.73,2.43,-24.1,30.5
2012-10-31 00:02:00,0.0,1.8945,0.0012,397.45,0.24,183.1,35.2,138.04,31.67,24.66,36.42,0.04,-272.75,-272.75,-42,564,-943,24.9,3.4,-21.6,25.2,3.4,-21.4,5.73,2.44,-24.1,30.5
2012-10-31 00:03:00,0.0,1.8945,0.0010,397.65,0.22,187.7,26.3,138.04,31.67,24.66,36.42,0.04,-272.75,-272.75,-42,564,-943,25.0,3.4,-21.7,25.3,3.4,-21.4,5.73,2.39,-24.1,30.5
2012-10-31 00:04:00,0.0,1.8940,0.0012,397.44,0.18,183.4,24.9,138.04,31.67,24.66,36.42,0.04,-272.74,-272.75,-42,565,-943,25.0,3.4,-21.7,25.3,3.4,-21.5,5.73,2.35,-24.0,30.5
2012-10-31 00:05:00,0.0,1.8962,0.0008,397.78,0.23,189.4,33.4,138.04,31.68,24.65,36.42,0.04,-272.75,-272.75,-42,565,-943,25.0,3.4,-21.8,25.3,3.4,-21.5,5.73,2.36,-24.0,30.5
2012-10-31 00:06:00,0.0,1.8967,0.0010,397.82,0.19,191.6,25.9,138.04,31.68,24.65,36.43,0.04,-272.75,-272.75,-42,565,-943,25.0,3.4,-21.7,25.3,3.4,-21.5,5.73,2.41,-24.0,30.5
2012-10-31 00:07:00,0.0,1.8979,0.0009,397.94,0.23,187.9,27.0,138.04,31.68,24.65,36.43,0.04,-272.74,-272.74,-42,565,-943,25.0,3.4,-21.8,25.3,3.4,-21.5,5.73,2.43,-24.1,30.5
2012-10-31 00:08:00,0.0,1.8957,0.0012,397.89,0.26,183.7,30.1,138.04,31.68,24.66,36.42,0.04,-272.74,-272.75,-42,565,-943,25.0,3.3,-22.0,25.3,3.3,-21.7,5.73,2.42,-24.1,30.4
2012-10-31 00:09:00,0.0,1.8951,0.0009,397.60,0.19,177.9,30.1,138.04,31.68,24.65,36.43,0.04,-272.75,-272.75,-42,565,-943,25.0,3.3,-22.0,25.3,3.4,-21.7,5.73,2.39,-24.1,30.4
2012-10-31 00:10:00,0.0,1.8951,0.0008,397.70,0.23,185.9,30.0,138.04,31.68,24.65,36.42,0.04,-272.74,-272.74,-42,565,-943,25.0,3.4,-21.7,25.3,3.4,-21.5,5.73,2.37,-24.2,30.4
2012-10-31 00:11:00,0.0,1.8951,0.0008,397.61,0.19,182.6,34.6,138.04,31.68,24.65,36.42,0.04,-272.74,-272.75,-43,565,-943,24.9,3.4,-21.8,25.2,3.4,-21.5,5.73,2.36,-24.2,30.4
2012-10-31 00:12:00,0.0,1.8950,0.0008,397.77,0.18,174.5,36.5,138.04,31.68,24.65,36.42,0.04,-272.75,-272.75,-43,565,-943,24.9,3.4,-21.8,25.2,3.4,-21.5,5.73,2.38,-24.2,30.4
2012-10-31 00:13:00,0.0,1.8954,0.0009,397.80,0.21,179.5,27.9,138.04,31.67,24.65,36.42,0.04,-272.74,-272.74,-42,565,-943,24.9,3.4,-21.8,25.2,3.4,-21.6,5.73,2.42,-24.2,30.4
2012-10-31 00:14:00,0.0,1.8959,0.0008,397.79,0.28,176.8,34.2,138.04,31.67,24.65,36.42,0.04,-272.74,-272.75,-42,565,-943,25.0,3.4,-21.8,25.3,3.4,-21.5,5.73,2.44,-24.2,30.5
2012-10-31 00:15:00,0.0,1.8962,0.0010,397.82,0.21,178.3,29.1,138.04,31.67,24.65,36.42,0.04,-272.75,-272.75,-42,565,-943,25.0,3.4,-21.9,25.3,3.4,-21.6,5.73,2.40,-24.2,30.5
2012-10-31 00:16:00,0.0,1.8955,0.0012,397.84,0.24,185.0,29.2,138.04,31.67,24.65,36.42,0.04,-272.75,-272.74,-42,565,-943,25.0,3.3,-21.9,25.3,3.3,-21.7,5.73,2.35,-24.2,30.5
2012-10-31 00:17:00,0.0,1.8945,0.0011,397.73,0.20,188.3,33.4,138.04,31.67,24.66,36.41,0.04,-272.75,-272.74,-42,565,-943,25.0,3.3,-22.0,25.3,3.3,-21.7,5.73,2.35,-24.1,30.5
2012-10-31 00:18:00,0.0,1.8941,0.0008,397.44,0.19,182.8,32.5,138.04,31.68,24.65,36.42,0.04,-272.75,-272.74,-43,565,-943,25.1,3.3,-21.9,25.3,3.4,-21.6,5.73,2.40,-24.1,30.6
2012-10-31 00:19:00,0.0,1.8946,0.0009,397.58,0.24,190.4,33.2,138.04,31.68,24.66,36.42,0.04,-272.75,-272.75,-43,565,-943,25.1,3.4,-21.8,25.3,3.4,-21.5,5.73,2.43,-24.1,30.6
2012-10-31 00:20:00,0.0,1.8946,0.0009,397.56,0.18,197.2,37.1,138.04,31.68,24.65,36.42,0.04,-272.74,-272.74,-43,565,-943,25.1,3.4,-21.6,25.4,3.4,-21.4,5.73,2.40,-24.0,30.6
2012-10-31 00:21:00,0.0,1.8940,0.0009,397.49,0.23,191.9,36.4,138.04,31.68,24.66,36.42,0.04,-272.75,-272.74,-42,565,-943,25.2,3.4,-21.7,25.4,3.4,-21.5,5.73,2.35,-24.0,30.6
2012-10-31 00:22:00,0.0,1.8941,0.0009,397.48,0.24,197.6,33.0,138.04,31.68,24.65,36.42,0.04,-272.75,-272.75,-42,565,-943,25.1,3.4,-21.7,25.4,3.4,-21.5,5.73,2.35,-24.0,30.5
2012-10-31 00:23:00,0.0,1.8940,0.0010,397.45,0.23,186.4,32.3,138.04,31.68,24.65,36.42,0.04,-272.75,-272.75,-42,565,-943,25.1,3.4,-21.6,25.3,3.4,-21.3,5.73,2.39,-24.1,30.5
2012-10-31 00:24:00,0.0,1.8939,0.0008,397.36,0.20,185.5,30.1,138.04,31.68,24.66,36.43,0.04,-272.74,-272.75,-42,565,-943,25.1,3.5,-21.4,25.3,3.5,-21.2,5.73,2.42,-24.1,30.5
2012-10-31 00:25:00,0.0,1.8936,0.0011,397.51,0.24,187.1,29.0,138.04,31.68,24.66,36.42,0.04,-272.75,-272.75,-42,565,-943,25.1,3.5,-21.5,25.3,3.5,-21.2,5.73,2.43,-24.2,30.5
2012-10-31 00:26:00,0.0,1.8938,0.0009,397.63,0.20,173.6,26.7,138.04,31.68,24.65,36.42,0.04,-272.75,-272.75,-43,565,-943,25.1,3.4,-21.7,25.3,3.4,-21.5,5.73,2.39,-24.2,30.5
2012-10-31 00:27:00,0.0,1.8940,0.0008,397.53,0.18,185.4,31.6,138.04,31.68,24.65,36.43,0.04,-272.74,-272.75,-43,565,-943,25.0,3.3,-21.9,25.3,3.4,-21.7,5.73,2.36,-24.2,30.5
2012-10-31 00:28:00,0.0,1.8940,0.0011,397.62,0.16,176.3,30.5,138.04,31.68,24.65,36.42,0.04,-272.75,-272.75,-43,565,-943,25.0,3.3,-22.1,25.3,3.3,-21.8,5.73,2.36,-24.2,30.4
2012-10-31 00:29:00,0.0,1.8940,0.0009,397.53,0.20,181.1,30.7,138.04,31.68,24.65,36.43,0.04,-272.75,-272.75,-43,565,-943,25.0,3.3,-22.2,25.3,3.3,-22.0,5.73,2.38,-24.2,30.4
2012-10-31 00:30:00,0.0,1.8939,0.0010,397.63,0.21,174.1,28.5,138.04,31.68,24.66,36.42,0.04,-272.75,-272.75,-42,565,-943,25.0,3.2,-22.3,25.3,3.3,-22.0,5.73,2.42,-24.2,30.4
2012-10-31 00:31:00,0.0,1.8937,0.0009,397.63,0.19,172.8,30.2,138.04,31.67,24.66,36.42,0.04,-272.75,-272.75,-42,565,-943,24.9,3.2,-22.4,25.2,3.2,-22.2,5.73,2.43,-24.3,30.4
2012-10-31 00:32:00,0.0,1.8937,0.0011,397.62,0.18,177.7,29.8,138.04,31.67,24.66,36.42,0.04,-272.74,-272.75,-42,565,-943,24.9,3.2,-22.5,25.2,3.2,-22.3,5.73,2.42,-24.3,30.5
2012-10-31 00:33:00,0.0,1.8944,0.0009,397.74,0.19,172.6,27.9,138.04,31.68,24.65,36.42,0.04,-272.74,-272.75,-42,565,-943,24.9,3.2,-22.6,25.2,3.2,-22.3,5.73,2.37,-24.3,30.5
2012-10-31 00:34:00,0.0,1.8941,0.0011,397.66,0.22,179.9,32.1,138.04,31.68,24.66,36.42,0.04,-272.74,-272.75,-42,565,-943,25.0,3.2,-22.4,25.3,3.2,-22.2,5.73,2.34,-24.2,30.5
2012-10-31 00:35:00,0.0,1.8941,0.0008,397.55,0.21,183.1,37.2,138.04,31.68,24.65,36.43,0.29,-270.69,-272.50,-42,565,-943,25.0,3.2,-22.3,25.3,3.3,-22.0,5.42,2.45,-28.7,30.5
2012-10-31 00:36:00,0.0,1.8941,0.0010,397.63,0.19,186.0,32.3,138.04,31.68,24.65,36.42,0.04,-272.75,-272.75,-43,565,-943,25.0,3.3,-22.2,25.3,3.3,-21.9,5.73,2.43,-24.2,30.5
2012-10-31 00:37:00,0.0,1.8945,0.0009,397.62,0.20,186.6,27.4,138.04,31.68,24.65,36.42,0.04,-272.74,-272.75,-43,565,-943,25.1,3.3,-22.1,25.3,3.3,-21.8,5.73,2.43,-24.1,30.6
2012-10-31 00:38:00,0.0,1.8943,0.0010,397.61,0.22,186.9,31.5,138.04,31.68,24.66,36.42,0.04,-272.74,-272.75,-42,565,-943,25.1,3.3,-21.9,25.4,3.3,-21.7,5.73,2.38,-24.1,30.6
2012-10-31 00:39:00,0.0,1.8944,0.0008,397.68,0.22,193.9,34.1,138.04,31.68,24.65,36.42,0.04,-272.75,-272.75,-42,565,-943,25.1,3.3,-21.9,25.4,3.4,-21.6,5.73,2.34,-24.1,30.6
2012-10-31 00:40:00,0.0,1.8941,0.0011,397.55,0.23,187.3,26.9,138.04,31.68,24.66,36.42,0.04,-272.75,-272.75,-42,565,-943,25.2,3.4,-21.7,25.4,3.4,-21.5,5.73,2.38,-24.1,30.6
2012-10-31 00:41:00,0.0,1.8939,0.0009,397.63,0.21,183.9,30.2,138.04,31.69,24.66,36.42,0.04,-272.74,-272.75,-42,565,-943,25.2,3.4,-21.8,25.4,3.4,-21.5,5.73,2.42,-24.1,30.6
2012-10-31 00:42:00,0.0,1.8943,0.0009,397.57,0.19,184.9,27.7,138.04,31.69,24.65,36.42,0.04,-272.75,-272.75,-42,565,-943,25.1,3.4,-21.8,25.4,3.4,-21.5,5.73,2.43,-24.1,30.5
2012-10-31 00:43:00,0.0,1.8946,0.0010,397.79,0.24,191.7,27.0,138.04,31.69,24.65,36.42,0.04,-272.74,-272.75,-42,565,-944,25.1,3.3,-22.0,25.3,3.3,-21.7,5.73,2.41,-24.1,30.5
2012-10-31 00:44:00,0.0,1.8949,0.0011,397.59,0.18,181.5,27.8,138.04,31.69,24.65,36.43,0.04,-272.75,-272.75,-43,566,-943,25.1,3.2,-22.3,25.3,3.2,-22.0,5.73,2.38,-24.2,30.5
2012-10-31 00:45:00,0.0,1.8945,0.0009,397.66,0.20,183.7,28.8,138.04,31.68,24.65,36.42,0.04,-272.74,-272.75,-43,565,-943,25.0,3.2,-22.5,25.3,3.2,-22.2,5.73,2.37,-24.2,30.5
2012-10-31 00:46:00,0.0,1.8944,0.0008,397.62,0.22,170.6,25.9,138.04,31.68,24.66,36.42,0.04,-272.74,-272.75,-43,565,-943,25.0,3.1,-22.6,25.3,3.2,-22.4,5.73,2.37,-24.3,30.4
2012-10-31 00:47:00,0.0,1.8948,0.0008,397.61,0.18,179.9,29.3,138.04,31.68,24.66,36.42,0.04,-272.74,-272.74,-43,565,-943,25.0,3.2,-22.6,25.3,3.2,-22.3,5.73,2.38,-24.3,30.4
2012-10-31 00:48:00,0.0,1.8949,0.0011,397.57,0.20,176.7,33.7,138.04,31.68,24.66,36.42,0.04,-272.74,-272.75,-42,565,-943,24.9,3.2,-22.5,25.2,3.2,-22.2,5.73,2.41,-24.4,30.5
2012-10-31 00:49:00,0.0,1.8952,0.0009,397.60,0.24,170.0,30.3,138.04,31.67,24.65,36.42,0.04,-272.75,-272.75,-42,565,-943,24.9,3.2,-22.4,25.2,3.2,-22.2,5.73,2.44,-24.4,30.5
2012-10-31 00:50:00,0.0,1.8957,0.0011,397.68,0.19,169.2,30.5,138.04,31.67,24.65,36.42,0.04,-272.74,-272.75,-42,565,-943,24.9,3.2,-22.4,25.2,3.2,-22.1,5.73,2.40,-24.3,30.5
2012-10-31 00:51:00,0.0,1.8955,0.0010,397.71,0.22,180.4,26.6,138.04,31.67,24.65,36.42,0.04,-272.74,-272.74,-42,565,-943,24.9,3.2,-22.3,25.3,3.3,-22.0,5.73,2.36,-24.3,30.5
2012-10-31 00:52:00,0.0,1.8952,0.0008,397.86,0.18,176.1,32.0,138.04,31.68,24.66,36.42,0.04,-272.75,-272.75,-42,565,-943,25.0,3.3,-22.2,25.3,3.3,-22.0,5.73,2.35,-24.3,30.5
2012-10-31 00:53:00,0.0,1.8954,0.0010,397.86,0.18,176.0,35.3,138.04,31.68,24.65,36.41,0.04,-272.75,-272.75,-43,565,-943,25.0,3.2,-22.3,25.3,3.3,-21.9,5.73,2.40,-24.2,30.6
2012-10-31 00:54:00,0.0,1.8955,0.0010,397.75,0.17,177.7,30.6,138.04,31.68,24.65,36.42,0.04,-272.74,-272.74,-43,565,-943,25.0,3.3,-22.1,25.3,3.3,-21.9,5.73,2.44,-24.2,30.6
2012-10-31 00:55:00,0.0,1.8959,0.0010,397.74,0.26,179.3,33.6,138.04,31.68,24.65,36.42,0.04,-272.75,-272.74,-43,565,-943,25.0,3.3,-22.0,25.3,3.3,-21.7,5.73,2.41,-24.2,30.6
2012-10-31 00:56:00,0.0,1.8964,0.0010,397.73,0.22,183.0,37.2,138.04,31.68,24.65,36.42,0.04,-272.75,-272.75,-43,565,-943,25.0,3.4,-21.9,25.3,3.4,-21.6,5.73,2.37,-24.3,30.5
2012-10-31 00:57:00,0.0,1.8966,0.0009,397.81,0.18,185.2,31.9,138.04,31.68,24.66,36.43,0.04,-272.74,-272.75,-42,565,-943,25.0,3.4,-21.8,25.3,3.4,-21.5,5.73,2.35,-24.3,30.5
2012-10-31 00:58:00,0.0,1.8969,0.0008,397.91,0.20,179.4,29.0,138.04,31.68,24.66,36.42,0.04,-272.75,-272.75,-42,565,-943,25.0,3.4,-21.7,25.3,3.4,-21.5,5.73,2.37,-24.3,30.5
2012-10-31 00:59:00,0.0,1.8966,0.0011,397.83,0.19,179.7,35.0,138.04,31.68,24.65,36.42,0.04,-272.75,-272.75,-42,565,-943,25.0,3.4,-21.7,25.3,3.4,-21.4,5.73,2.41,-24.3,30.5
2012-10-31 01:00:00,0.0,1.8960,0.0011,397.70,0.23,180.7,29.6,138.04,31.68,24.66,36.43,0.04,-272.74,-272.75,-42,565,-943,25.0,3.4,-21.7,25.3,3.4,-21.4,5.73,2.44,-24.3,30.5
2012-10-31 01:01:00,0.0,1.8962,0.0009,397.92,0.21,172.0,33.0,138.04,31.68,24.65,36.42,0.04,-272.74,-272.74,-43,565,-943,25.0,3.5,-21.6,25.3,3.5,-21.3,5.73,2.40,-24.3,30.5
2012-10-31 01:02:00,0.0,1.8973,0.0010,397.85,0.20,182.6,29.2,138.04,31.68,24.65,36.42,0.04,-272.75,-272.75,-43,565,-943,25.0,3.5,-21.6,25.3,3.5,-21.3,5.73,2.36,-24.3,30.5
2012-10-31 01:03:00,0.0,1.8974,0.0009,397.96,0.18,179.1,34.8,138.04,31.69,24.66,36.42,0.04,-272.74,-272.75,-43,565,-943,25.1,3.5,-21.5,25.3,3.5,-21.2,5.73,2.35,-24.2,30.6
2012-10-31 01:04:00,0.0,1.8976,0.0008,398.01,0.27,191.5,34.3,138.04,31.69,24.65,36.42,0.04,-272.74,-272.75,-43,565,-943,25.1,3.4,-21.6,25.3,3.5,-21.3,5.73,2.39,-24.2,30.6
2012-10-31 01:05:00,0.0,1.8981,0.0008,397.94,0.20,181.9,28.2,138.04,31.69,24.65,36.43,0.04,-272.75,-272.75,-43,565,-943,25.1,3.4,-21.6,25.3,3.5,-21.2,5.73,2.43,-24.2,30.6
2012-10-31 01:06:00,0.0,1.8974,0.0010,398.11,0.17,181.9,25.5,138.04,31.69,24.65,36.41,0.04,-272.75,-272.75,-42,565,-943,25.1,3.5,-21.5,25.3,3.5,-21.2,5.73,2.42,-24.2,30.6
2012-10-31 01:07:00,0.0,1.8970,0.0009,398.00,0.17,190.0,32.1,138.04,31.69,24.66,36.42,0.04,-272.75,-272.75,-42,565,-943,25.0,3.5,-21.5,25.3,3.5,-21.2,5.73,2.39,-24.2,30.5
2012-10-31 01:08:00,0.0,1.8975,0.0009,397.94,0.24,173.9,35.2,138.04,31.69,24.66,36.42,0.04,-272.74,-272.75,-42,565,-943,25.0,3.5,-21.4,25.3,3.5,-21.2,5.73,2.37,-24.3,30.6
2012-10-31 01:09:00,0.0,1.8974,0.0009,397.84,0.22,173.8,26.6,138.04,31.69,24.65,36.43,0.04,-272.75,-272.75,-42,565,-943,24.9,3.5,-21.4,25.3,3.5,-21.1,5.73,2.36,-24.3,30.5
2012-10-31 01:10:00,0.0,1.8970,0.0009,398.01,0.19,175.4,32.1,138.04,31.69,24.65,36.42,0.04,-272.75,-272.75,-42,565,-943,24.9,3.5,-21.3,25.2,3.6,-21.0,5.73,2.37,-24.4,30.4
2012-10-31 01:11:00,0.0,1.8971,0.0010,398.05,0.23,169.4,27.0,138.04,31.68,24.65,36.42,0.04,-272.75,-272.74,-42,565,-943,24.9,3.5,-21.4,25.2,3.6,-21.1,5.73,2.39,-24.3,30.4
2012-10-31 01:12:00,0.0,1.9046,0.0041,398.40,0.29,168.8,29.5,138.04,31.68,24.66,36.42,0.04,-272.75,-272.74,-43,565,-943,24.9,3.5,-21.4,25.2,3.5,-21.1,5.73,2.43,-24.3,30.5
2012-10-31 01:13:00,0.0,1.9068,0.0032,398.55,0.30,174.9,26.7,138.04,31.68,24.66,36.42,0.04,-272.74,-272.75,-43,565,-943,24.9,3.4,-21.7,25.2,3.5,-21.4,5.73,2.43,-24.3,30.5
2012-10-31 01:14:00,0.0,1.9052,0.0009,398.44,0.18,175.3,29.5,138.04,31.68,24.65,36.41,0.04,-272.74,-272.75,-42,565,-943,24.9,3.4,-21.9,25.2,3.4,-21.6,5.73,2.39,-24.3,30.5
2012-10-31 01:15:00,0.0,1.9002,0.0017,398.10,0.18,163.3,33.0,138.04,31.68,24.65,36.42,0.04,-272.74,-272.75,-42,565,-943,24.8,3.4,-21.9,25.2,3.4,-21.7,5.73,2.35,-24.3,30.5
2012-10-31 01:16:00,0.0,1.8991,0.0011,398.06,0.17,171.3,32.0,138.04,31.68,24.65,36.42,0.04,-272.75,-272.75,-42,564,-943,24.9,3.4,-21.9,25.2,3.4,-21.6,5.73,2.36,-24.3,30.5
2012-10-31 01:17:00,0.0,1.8980,0.0010,398.03,0.24,171.9,29.0,138.04,31.69,24.66,36.42,0.04,-272.75,-272.75,-42,565,-943,24.9,3.4,-21.8,25.2,3.4,-21.5,5.73,2.41,-24.2,30.5
2012-10-31 01:18:00,0.0,1.8971,0.0009,398.00,0.19,174.5,31.9,138.04,31.69,24.65,36.42,0.04,-272.74,-272.75,-42,565,-943,25.0,3.4,-21.8,25.3,3.4,-21.6,5.73,2.44,-24.2,30.5
2012-10-31 01:19:00,0.0,1.8973,0.0009,398.03,0.20,180.0,28.9,138.04,31.69,24.65,36.42,0.04,-272.75,-272.74,-42,565,-943,25.0,3.3,-22.0,25.3,3.3,-21.7,5.73,2.39,-24.2,30.5
2012-10-31 01:20:00,0.0,1.8972,0.0009,398.02,0.19,181.0,27.6,138.04,31.69,24.65,36.42,0.04,-272.75,-272.75,-43,564,-943,25.0,3.3,-22.2,25.3,3.3,-21.9,5.73,2.35,-24.1,30.6
2012-10-31 01:21:00,0.0,1.8978,0.0007,397.97,0.23,186.9,33.1,138.04,31.69,24.65,36.42,0.04,-272.75,-272.74,-43,565,-943,25.1,3.2,-22.2,25.3,3.3,-21.9,5.73,2.36,-24.1,30.6
2012-10-31 01:22:00,0.0,1.8975,0.0009,397.99,0.22,186.9,28.8,138.04,31.69,24.66,36.42,0.04,-272.75,-272.75,-43,565,-943,25.1,3.2,-22.3,25.3,3.3,-22.0,5.73,2.41,-24.1,30.5
2012-10-31 01:23:00,0.0,1.8978,0.0009,397.93,0.20,177.8,26.1,138.04,31.69,24.65,36.43,0.04,-272.75,-272.75,-42,565,-943,25.1,3.2,-22.4,25.3,3.2,-22.1,5.73,2.43,-24.2,30.5
2012-10-31 01:24:00,0.0,1.8978,0.0009,398.01,0.26,173.7,32.3,138.04,31.69,24.66,36.41,0.04,-272.75,-272.75,-42,565,-943,25.0,3.2,-22.5,25.3,3.2,-22.2,5.73,2.41,-24.2,30.5
2012-10-31 01:25:00,0.0,1.8976,0.0009,397.97,0.22,177.7,26.5,138.04,31.69,24.66,36.42,0.04,-272.75,-272.74,-42,565,-943,25.0,3.2,-22.5,25.3,3.2,-22.2,5.73,2.38,-24.2,30.5
2012-10-31 01:26:00,0.0,1.8980,0.0010,397.94,0.21,167.0,34.1,138.04,31.69,24.66,36.42,0.04,-272.75,-272.75,-42,565,-943,25.0,3.2,-22.6,25.3,3.2,-22.3,5.73,2.36,-24.3,30.5
2012-10-31 01:27:00,0.0,1.8971,0.0012,397.86,0.20,171.0,32.2,138.04,31.69,24.66,36.42,0.04,-272.75,-272.75,-42,565,-942,24.9,3.2,-22.6,25.2,3.2,-22.3,5.73,2.36,-24.3,30.4
2012-10-31 01:28:00,0.0,1.8976,0.0010,397.87,0.22,169.5,31.2,138.04,31.69,24.65,36.43,0.04,-272.74,-272.75,-42,565,-943,24.9,3.2,-22.5,25.2,3.2,-22.3,5.73,2.39,-24.3,30.4
2012-10-31 01:29:00,0.0,1.8976,0.0009,398.04,0.19,169.6,34.2,138.04,31.69,24.65,36.42,0.04,-272.74,-272.75,-42,565,-943,24.9,3.2,-22.5,25.2,3.2,-22.3,5.73,2.42,-24.3,30.3
2012-10-31 01:30:00,0.0,1.8978,0.0010,398.05,0.24,166.3,33.5,138.04,31.68,24.66,36.42,0.04,-272.75,-272.75,-42,565,-943,24.9,3.2,-22.4,25.2,3.2,-22.1,5.73,2.43,-24.4,30.3
2012-10-31 01:31:00,0.0,1.8986,0.0011,398.07,0.18,169.7,34.1,138.04,31.68,24.66,36.43,0.04,-272.74,-272.75,-42,565,-943,24.8,3.3,-22.2,25.2,3.3,-22.0,5.73,2.41,-24.4,30.3
2012-10-31 01:32:00,0.0,1.8977,0.0012,398.10,0.21,163.5,29.5,138.04,31.68,24.66,36.41,0.04,-272.74,-272.75,-42,564,-943,24.8,3.3,-22.0,25.2,3.3,-21.8,5.73,2.38,-24.4,30.3
2012-10-31 01:33:00,0.0,1.8966,0.0008,397.91,0.20,171.1,28.7,138.04,31.68,24.65,36.42,0.04,-272.74,-272.75,-42,564,-943,24.8,3.4,-22.0,25.1,3.4,-21.7,5.73,2.35,-24.4,30.3
2012-10-31 01:34:00,0.0,1.8964,0.0009,397.93,0.20,171.3,29.2,138.04,31.68,24.66,36.42,0.04,-272.74,-272.75,-42,564,-943,24.8,3.4,-21.9,25.1,3.4,-21.6,5.73,2.37,-24.4,30.3
2012-10-31 01:35:00,0.0,1.8970,0.0010,397.89,0.23,167.1,28.3,138.04,31.68,24.66,36.43,0.04,-272.75,-272.75,-42,564,-942,24.8,3.4,-21.9,25.2,3.4,-21.6,5.73,2.42,-24.4,30.4
2012-10-31 01:36:00,0.0,1.8966,0.0009,398.03,0.24,167.3,32.3,138.04,31.68,24.66,36.42,0.04,-272.75,-272.75,-42,564,-943,24.9,3.4,-21.8,25.2,3.4,-21.6,5.73,2.44,-24.4,30.4
2012-10-31 01:37:00,0.0,1.8975,0.0010,398.06,0.21,175.4,27.3,138.04,31.68,24.65,36.42,0.04,-272.75,-272.75,-42,564,-943,24.9,3.4,-21.9,25.2,3.4,-21.6,5.73,2.39,-24.3,30.4
2012-10-31 01:38:00,0.0,1.8969,0.0011,397.92,0.23,177.8,33.4,138.04,31.68,24.66,36.42,0.04,-272.75,-272.74,-42,564,-943,24.9,3.3,-22.0,25.2,3.4,-21.7,5.73,2.34,-24.3,30.4
2012-10-31 01:39:00,0.0,1.8968,0.0010,397.85,0.20,185.1,32.3,138.04,31.68,24.66,36.42,0.04,-272.74,-272.75,-42,564,-943,24.9,3.3,-22.0,25.2,3.3,-21.8,5.73,2.37,-24.2,30.4
2012-10-31 01:40:00,0.0,1.8971,0.0009,397.85,0.24,184.0,29.5,138.04,31.68,24.65,36.43,0.04,-272.75,-272.75,-42,564,-943,25.0,3.3,-21.9,25.3,3.3,-21.7,5.73,2.43,-24.2,30.5
2012-10-31 01:41:00,0.0,1.8973,0.0010,397.95,0.22,180.9,29.7,138.04,31.68,24.65,36.42,0.04,-272.75,-272.75,-42,565,-943,25.0,3.3,-22.0,25.3,3.3,-21.7,5.73,2.43,-24.2,30.5
2012-10-31 01:42:00,0.0,1.8967,0.0010,397.87,0.21,180.4,30.9,138.04,31.68,24.65,36.42,0.04,-272.74,-272.75,-42,565,-943,25.0,3.3,-22.0,25.3,3.3,-21.7,5.73,2.37,-24.2,30.4
2012-10-31 01:43:00,0.0,1.8965,0.0010,397.82,0.19,176.8,31.0,138.04,31.68,24.65,36.42,0.04,-272.74,-272.75,-42,565,-943,25.0,3.3,-22.0,25.2,3.3,-21.8,5.73,2.35,-24.3,30.4
2012-10-31 01:44:00,0.0,1.8964,0.0011,397.73,0.20,177.8,27.0,138.04,31.68,24.65,36.43,0.04,-272.75,-272.75,-42,565,-943,24.9,3.4,-21.9,25.2,3.4,-21.7,5.73,2.37,-24.3,30.4
2012-10-31 01:45:00,0.0,1.8962,0.0009,397.76,0.18,174.4,23.5,138.04,31.68,24.65,36.42,0.04,-272.74,-272.75,-42,565,-943,24.9,3.4,-21.9,25.2,3.4,-21.6,5.73,2.40,-24.3,30.4
2012-10-31 01:46:00,0.0,1.8962,0.0009,397.77,0.26,169.8,29.7,138.04,31.68,24.65,36.42,0.04,-272.75,-272.75,-42,564,-943,24.9,3.4,-21.8,25.2,3.4,-21.6,5.73,2.43,-24.4,30.4
2012-10-31 01:47:00,0.0,1.8965,0.0009,397.74,0.20,166.7,35.3,138.04,31.68,24.65,36.42,0.04,-272.75,-272.75,-43,564,-942,24.9,3.4,-21.8,25.2,3.4,-21.6,5.73,2.42,-24.4,30.4
2012-10-31 01:48:00,0.0,1.8966,0.0009,397.81,0.22,171.8,31.9,138.04,31.68,24.65,36.42,0.04,-272.75,-272.75,-42,564,-942,24.9,3.4,-21.8,25.2,3.4,-21.6,5.73,2.37,-24.4,30.4
2012-10-31 01:49:00,0.0,1.8962,0.0010,397.79,0.24,165.7,32.2,138.04,31.68,24.65,36.42,0.04,-272.74,-272.75,-42,564,-942,24.9,3.4,-21.8,25.2,3.4,-21.5,5.73,2.34,-24.3,30.4
2012-10-31 01:50:00,0.0,1.8963,0.0009,397.85,0.21,171.5,37.2,138.04,31.68,24.65,36.42,0.04,-272.75,-272.75,-42,564,-942,24.9,3.4,-21.7,25.2,3.4,-21.5,5.73,2.39,-24.3,30.5
2012-10-31 01:51:00,0.0,1.8966,0.0010,398.09,0.23,171.3,32.8,138.04,31.68,24.65,36.41,0.04,-272.74,-272.75,-42,565,-943,25.0,3.4,-21.7,25.2,3.4,-21.5,5.73,2.44,-24.3,30.5
2012-10-31 01:52:00,0.0,1.8975,0.0011,398.08,0.19,172.4,28.3,138.04,31.68,24.65,36.42,0.04,-272.75,-272.74,-42,564,-943,25.0,3.4,-21.8,25.3,3.4,-21.5,5.73,2.41,-24.2,30.5
2012-10-31 01:53:00,0.0,1.8966,0.0009,397.92,0.19,178.2,34.8,138.04,31.68,24.65,36.42,0.04,-272.75,-272.75,-43,565,-943,25.1,3.4,-21.8,25.3,3.4,-21.6,5.73,2.35,-24.2,30.5
2012-10-31 01:54:00,0.0,1.8966,0.0010,397.81,0.19,170.1,32.1,138.04,31.68,24.65,36.43,0.04,-272.75,-272.74,-43,565,-943,25.1,3.3,-21.9,25.3,3.4,-21.6,5.73,2.35,-24.1,30.5
2012-10-31 01:55:00,0.0,1.8964,0.0010,397.79,0.17,181.7,29.8,138.04,31.69,24.66,36.43,0.04,-272.74,-272.74,-43,565,-943,25.1,3.3,-21.8,25.3,3.4,-21.6,5.73,2.39,-24.1,30.6
2012-10-31 01:56:00,0.0,1.8966,0.0010,397.91,0.19,180.7,34.6,138.04,31.69,24.66,36.41,0.04,-272.74,-272.75,-42,565,-942,25.2,3.3,-21.9,25.3,3.3,-21.7,5.73,2.43,-24.1,30.6
2012-10-31 01:57:00,0.0,1.8966,0.0012,397.81,0.20,189.1,34.2,138.04,31.70,24.65,36.42,0.04,-272.75,-272.75,-42,565,-943,25.1,3.3,-21.9,25.4,3.3,-21.7,5.73,2.41,-24.1,30.6
2012-10-31 01:58:00,0.0,1.8965,0.0010,397.87,0.17,190.0,35.5,138.04,31.70,24.65,36.42,0.04,-272.74,-272.75,-43,565,-943,25.1,3.3,-21.9,25.4,3.4,-21.6,5.73,2.37,-24.1,30.5
2012-10-31 01:59:00,0.0,1.8964,0.0009,397.90,0.22,174.4,33.8,138.04,31.70,24.65,36.42,0.04,-272.75,-272.75,-43,565,-943,25.1,3.4,-21.7,25.4,3.4,-21.5,5.73,2.36,-24.2,30.5
2012-10-31 02:00:00,0.0,1.8960,0.0009,397.79,0.23,175.5,31.9,138.04,31.70,24.66,36.43,0.04,-272.75,-272.75,-43,565,-943,25.1,3.4,-21.6,25.3,3.5,-21.3,5.73,2.36,-24.2,30.5
2012-10-31 02:01:00,0.0,1.8970,0.0008,397.88,0.23,171.0,23.9,138.04,31.69,24.65,36.42,0.04,-272.75,-272.75,-43,565,-943,25.0,3.5,-21.5,25.3,3.5,-21.2,5.73,2.39,-24.3,30.5
2012-10-31 02:02:00,0.0,1.8982,0.0011,398.26,0.20,167.5,30.3,138.04,31.69,24.65,36.41,0.04,-272.75,-272.74,-43,565,-943,25.0,3.5,-21.4,25.3,3.5,-21.1,5.73,2.41,-24.3,30.5
2012-10-31 02:03:00,0.0,1.8980,0.0011,398.13,0.28,161.7,30.9,138.04,31.69,24.65,36.42,0.04,-272.75,-272.75,-43,565,-943,25.0,3.5,-21.4,25.3,3.5,-21.2,5.73,2.43,-24.3,30.5
2012-10-31 02:04:00,0.0,1.8972,0.0011,397.92,0.22,167.9,25.3,138.04,31.68,24.65,36.42,0.04,-272.74,-272.75,-43,565,-943,25.0,3.5,-21.4,25.3,3.5,-21.2,5.73,2.41,-24.3,30.5
2012-10-31 02:05:00,0.0,1.8972,0.0011,397.87,0.22,166.2,34.8,138.04,31.68,24.65,36.42,0.04,-272.75,-272.75,-43,565,-943,25.0,3.5,-21.4,25.3,3.5,-21.2,5.73,2.35,-24.3,30.5
2012-10-31 02:06:00,0.0,1.8965,0.0010,397.78,0.18,176.1,29.0,138.04,31.68,24.65,36.43,0.04,-272.75,-272.75,-42,565,-943,25.1,3.5,-21.3,25.3,3.5,-21.1,5.73,2.34,-24.3,30.5
2012-10-31 02:07:00,0.0,1.8963,0.0011,397.73,0.17,179.1,33.6,138.04,31.69,24.65,36.43,0.04,-272.75,-272.75,-42,565,-943,25.1,3.5,-21.3,25.3,3.5,-21.1,5.73,2.39,-24.3,30.5
2012-10-31 02:08:00,0.0,1.8964,0.0009,397.68,0.18,174.4,37.5,138.04,31.69,24.66,36.43,0.04,-272.74,-272.75,-43,565,-943,25.1,3.5,-21.3,25.3,3.6,-21.0,5.73,2.44,-24.2,30.6
2012-10-31 02:09:00,0.0,1.8968,0.0009,397.87,0.19,174.9,29.6,138.04,31.69,24.66,36.42,0.04,-272.75,-272.75,-43,565,-943,25.1,3.5,-21.2,25.3,3.6,-21.0,5.73,2.42,-24.3,30.5
2012-10-31 02:10:00,0.0,1.8969,0.0009,397.87,0.22,176.8,33.9,138.04,31.69,24.65,36.41,0.04,-272.74,-272.75,-43,565,-943,25.0,3.6,-21.2,25.3,3.6,-20.9,5.73,2.37,-24.3,30.5
2012-10-31 02:11:00,0.0,1.8970,0.0010,397.85,0.17,175.0,26.3,138.04,31.69,24.66,36.42,0.04,-272.74,-272.75,-43,565,-943,25.0,3.6,-21.2,25.3,3.6,-20.9,5.73,2.35,-24.4,30.5
2012-10-31 02:12:00,0.0,1.8978,0.0008,397.89,0.19,171.1,28.3,138.04,31.69,24.65,36.42,0.04,-272.74,-272.75,-43,565,-943,25.0,3.6,-21.2,25.3,3.6,-20.9,5.73,2.36,-24.4,30.5
2012-10-31 02:13:00,0.0,1.8971,0.0010,397.89,0.18,169.7,25.4,138.04,31.69,24.66,36.42,0.04,-272.75,-272.75,-43,565,-943,25.0,3.6,-21.1,25.3,3.6,-20.9,5.73,2.39,-24.4,30.4
2012-10-31 02:14:00,0.0,1.8966,0.0009,397.88,0.21,167.5,29.2,138.04,31.69,24.66,36.42,0.04,-272.75,-272.75,-43,565,-943,25.0,3.6,-21.1,25.3,3.6,-20.9,5.73,2.43,-24.4,30.4
2012-10-31 02:15:00,0.0,1.8976,0.0011,398.17,0.22,160.1,34.6,138.04,31.68,24.65,36.42,0.04,-272.75,-272.75,-42,565,-943,24.9,3.6,-21.2,25.2,3.6,-20.9,5.73,2.43,-24.5,30.4
2012-10-31 02:16:00,0.0,1.8966,0.0010,397.93,0.20,160.4,31.8,138.04,31.68,24.65,36.43,0.04,-272.75,-272.75,-42,565,-943,24.9,3.6,-21.2,25.2,3.6,-21.0,5.73,2.40,-24.5,30.4